Volver al catálogo

ONEWEB-0119

ActivoComunicacionesPO
NORAD 47265·PAYLOAD·🇬🇧 United Kingdom

Lanzado Dec 18, 2020 desde Vostochny Cosmodrome

Loading…

Próximos Pases (próximas 24 horas)

TLE

ActualizadoSource: CelesTrak SupGP

Época: Sep 14, 2026, 21:09 UTC

1 47265C 20100H   26257.88177500 -.00002836  00000+0 -78931-2 0  2572
2 47265  87.8979 332.8579 0001872 100.9096   1.9059 13.12446050    15

Sigue ONEWEB-0119 en tiempo real con AllMySat

Download on the App Store